EW9000 Weather Reports


Display with metric or nautical units.
time (UTC)temp
F
wind
direction
speed
MPH
gust
MPH
rain 1hr
in
rain 24hr
in
rain mn
in
humidity
%
barometer
mb
20180522212523 81 153 2.0 4.0 0.00 0.00 0.00 51 1017.9
20180522211532 81 129 2.0 4.0 0.00 0.00 0.00 52 1017.9
20180522210524 81 177 3.0 5.0 0.00 0.00 0.00 53 1018.1
20180522205519 81 129 1.0 4.0 0.00 0.00 0.00 52 1018.2
20180522204524 81 165 3.0 4.0 0.00 0.00 0.00 52 1018.4
20180522203518 81 173 1.0 3.0 0.00 0.00 0.00 54 1018.5
20180522202531 81 178 2.0 4.0 0.00 0.00 0.00 54 1018.5
20180522201533 81 163 3.0 4.0 0.00 0.00 0.00 54 1018.7
20180522200518 81 63 2.0 4.0 0.00 0.00 0.00 54 1019.0
20180522195527 80 153 4.0 5.0 0.00 0.00 0.00 54 1019.2
20180522194517 80 43 3.0 5.0 0.00 0.00 0.00 55 1019.2
20180522193527 80 88 1.0 3.0 0.00 0.00 0.00 56 1019.2
20180522192517 80 163 2.0 5.0 0.00 0.00 0.00 58 1019.2
20180522191524 80 66 2.0 3.0 0.00 0.00 0.00 58 1019.5
20180522190517 79 173 3.0 5.0 0.00 0.00 0.00 58 1019.5
20180522185531 79 190 2.0 5.0 0.00 0.00 0.00 58 1019.6
20180522184533 79 83 3.0 5.0 0.00 0.00 0.00 57 1019.7
20180522183530 79 10 1.0 4.0 0.00 0.00 0.00 58 1019.7
20180522182526 78 117 2.0 4.0 0.00 0.00 0.00 58 1019.7
20180522181522 78 150 3.0 4.0 0.00 0.00 0.00 58 1019.9
20180522180528 77 336 1.0 3.0 0.00 0.00 0.00 58 1019.9
20180522175521 78 50 2.0 4.0 0.00 0.00 0.00 58 1020.0
20180522174532 77 355 2.0 4.0 0.00 0.00 0.00 59 1020.1
20180522173527 77 41 1.0 4.0 0.00 0.00 0.00 57 1020.0
20180522172520 77 47 3.0 4.0 0.00 0.00 0.00 60 1020.0
20180522171530 78 133 3.0 4.0 0.00 0.00 0.00 61 1020.1
20180522170523 76 51 2.0 4.0 0.00 0.00 0.00 62 1020.3
20180522165518 77 75 1.0 3.0 0.00 0.00 0.00 61 1020.3
20180522164524 77 111 2.0 3.0 0.00 0.00 0.00 61 1020.3
20180522163533 76 23 3.0 4.0 0.00 0.00 0.00 62 1020.3
20180522162525 76 88 2.0 3.0 0.00 0.00 0.00 62 1020.4
20180522161517 77 168 2.0 4.0 0.00 0.00 0.00 61 1020.4
20180522160521 77 116 1.0 4.0 0.00 0.00 0.00 60 1020.4
20180522155518 77 175 2.0 4.0 0.00 0.00 0.00 60 1020.4
20180522154516 78 277 2.0 3.0 0.00 0.00 0.00 60 1020.4
20180522153527 77 154 2.0 4.0 0.00 0.00 0.00 60 1020.4
20180522152528 75 243 1.0 2.0 0.00 0.00 0.00 62 1020.3
20180522151516 74 301 1.0 3.0 0.00 0.00 0.00 64 1020.3
20180522150527 76 178 2.0 4.0 0.00 0.00 0.00 62 1020.2
20180522145521 73 32 2.0 3.0 0.00 0.00 0.00 65 1020.3
20180522144526 75 129 2.0 3.0 0.00 0.00 0.00 62 1020.3
20180522143518 72 58 2.0 2.0 0.00 0.00 0.00 67 1020.2
20180522142517 71 20 3.0 4.0 0.00 0.00 0.00 68 1019.9
20180522141530 72 97 1.0 4.0 0.00 0.00 0.00 69 1019.7
20180522140531 70 41 3.0 5.0 0.00 0.00 0.00 69 1019.7
20180522135525 70 72 2.0 4.0 0.00 0.00 0.00 71 1019.7
20180522134516 69 20 3.0 5.0 0.00 0.00 0.00 72 1019.6
20180522133527 69 37 3.0 5.0 0.00 0.00 0.00 72 1019.6
20180522132517 69 28 3.0 4.0 0.00 0.00 0.00 71 1019.7
20180522131523 69 31 2.0 4.0 0.00 0.00 0.00 72 1019.7
20180522130520 68 54 1.0 2.0 0.00 0.00 0.00 72 1019.7
20180522125517 67 37 1.0 2.0 0.00 0.00 0.00 73 1019.7
20180522124531 67 47 0.0 1.0 0.00 0.00 0.00 75 1019.6
20180522123522 65 27 1.0 2.0 0.00 0.00 0.00 78 1019.5
20180522122520 64 0.0 0.0 0.00 0.00 0.00 80 1019.5
20180522121528 63 0.0 0.0 0.00 0.00 0.00 82 1019.2
20180522120522 61 0.0 0.0 0.00 0.00 0.00 87 1019.2
20180522115532 60 0.0 0.0 0.00 0.00 0.00 88 1019.0
20180522114523 59 0.0 0.0 0.00 0.00 0.00 88 1018.9
20180522113520 58 0.0 0.0 0.00 0.00 0.00 88 1018.8
20180522112516 58 0.0 0.0 0.00 0.00 0.00 88 1018.7
20180522111530 58 0.0 0.0 0.00 0.00 0.00 88 1018.7
20180522110518 58 0.0 0.0 0.00 0.00 0.00 88 1018.3
20180522105530 58 0.0 0.0 0.00 0.00 0.00 88 1018.2
20180522104519 58 0.0 0.0 0.00 0.00 0.00 88 1018.0
20180522103522 58 0.0 0.0 0.00 0.00 0.00 88 1018.0
20180522102517 58 0.0 0.0 0.00 0.00 0.00 88 1018.0
20180522101528 58 0.0 0.0 0.00 0.00 0.00 87 1017.9
20180522100522 58 0.0 0.0 0.00 0.00 0.00 87 1017.9
20180522095533 58 0.0 0.0 0.00 0.00 0.00 87 1018.0
20180522094518 58 0.0 0.0 0.00 0.00 0.00 87 1017.9
20180522093520 58 0.0 0.0 0.00 0.00 0.00 87 1017.9
20180522091527 58 0.0 0.0 0.00 0.00 0.00 86 1017.7
20180522090527 58 0.0 0.0 0.00 0.00 0.00 86 1017.7
20180522085519 58 0.0 0.0 0.00 0.00 0.00 86 1017.6
20180522084530 58 0.0 0.0 0.00 0.00 0.00 86 1017.5
20180522083522 59 0.0 0.0 0.00 0.00 0.00 87 1017.5
20180522082527 59 0.0 0.0 0.00 0.00 0.00 87 1017.6
20180522081521 59 0.0 0.0 0.00 0.00 0.00 86 1017.6
20180522080518 59 0.0 0.0 0.00 0.00 0.00 85 1017.7
20180522075530 59 0.0 0.0 0.00 0.00 0.00 86 1017.6
20180522074532 59 0.0 0.0 0.00 0.00 0.00 85 1017.5
20180522073518 60 0.0 0.0 0.00 0.00 0.00 85 1017.5
20180522072525 60 0.0 0.0 0.00 0.00 0.00 85 1017.5
20180522071532 60 0.0 0.0 0.00 0.00 0.00 84 1017.6
20180522070523 61 0.0 0.0 0.00 0.00 0.00 84 1017.6
20180522065517 61 0.0 0.0 0.00 0.00 0.00 82 1017.8
20180522064523 61 0.0 0.0 0.00 0.00 0.00 82 1017.7
20180522063515 62 0.0 0.0 0.00 0.00 0.00 81 1017.7
20180522062530 62 0.0 0.0 0.00 0.00 0.00 80 1017.8
20180522061533 63 0.0 0.0 0.00 0.00 0.00 80 1017.8
20180522060533 63 0.0 0.0 0.00 0.00 0.00 80 1017.8
20180522055523 63 0.0 0.0 0.00 0.00 0.00 80 1018.0
20180522054532 64 0.0 0.0 0.00 0.00 0.00 80 1018.0
20180522053531 64 0.0 0.0 0.00 0.00 0.00 80 1018.0
20180522052520 63 266 0.0 2.0 0.00 0.00 0.00 80 1018.0
20180522051515 63 294 1.0 2.0 0.00 0.00 0.00 80 1018.0
20180522050518 64 22 0.0 1.0 0.00 0.00 0.00 80 1018.0
20180522045527 64 0.0 0.0 0.00 0.00 0.00 78 1018.0
20180522044517 64 0.0 0.0 0.00 0.00 0.00 77 1018.0
20180522043531 65 0.0 0.0 0.00 0.00 0.00 77 1017.9
20180522042526 65 270 0.0 1.0 0.00 0.00 0.00 77 1017.8
20180522041517 66 270 0.0 1.0 0.00 0.00 0.00 76 1017.8
20180522040517 66 270 0.0 1.0 0.00 0.00 0.00 76 1017.9
20180522035529 66 270 0.0 1.0 0.00 0.00 0.00 75 1017.7
20180522034521 67 282 1.0 2.0 0.00 0.00 0.00 75 1017.8
20180522033527 67 0.0 0.0 0.00 0.00 0.00 74 1017.8
20180522032520 67 282 1.0 3.0 0.00 0.00 0.00 74 1017.7
20180522031517 68 282 2.0 2.0 0.00 0.00 0.00 73 1017.6
20180522030520 68 257 2.0 2.0 0.00 0.00 0.00 72 1017.5
20180522025515 69 276 0.0 2.0 0.00 0.00 0.00 72 1017.4
20180522024530 69 274 1.0 2.0 0.00 0.03 0.00 71 1017.3
20180522023532 70 0.0 0.0 0.00 0.05 0.00 70 1017.2
20180522022519 70 283 0.0 1.0 0.00 0.09 0.00 70 1017.2
20180522021528 71 270 1.0 2.0 0.00 0.14 0.00 68 1017.2
20180522020519 71 262 0.0 2.0 0.00 0.24 0.00 67 1017.0
20180522015526 71 277 0.0 1.0 0.00 0.51 0.00 67 1016.9
20180522014523 72 284 0.0 2.0 0.00 0.57 0.00 66 1017.0
20180522013519 72 278 1.0 3.0 0.00 0.57 0.00 65 1017.0
20180522012530 72 271 1.0 2.0 0.00 0.57 0.00 65 1016.9
20180522011532 72 258 1.0 2.0 0.00 0.57 0.00 64 1016.8
20180522010532 73 271 2.0 3.0 0.00 0.57 0.00 64 1016.7
20180522005525 74 252 1.0 2.0 0.00 0.57 0.00 62 1016.7
20180522004515 74 255 2.0 4.0 0.00 0.57 0.00 61 1016.6
20180522003526 75 254 2.0 2.0 0.00 0.57 0.00 61 1016.5
20180522002517 75 292 2.0 4.0 0.00 0.57 0.00 61 1016.5
20180522001522 75 254 3.0 5.0 0.00 0.57 0.00 61 1016.5
20180522000520 75 277 2.0 3.0 0.00 0.57 0.00 61 1016.5
20180521235515 75 274 3.0 4.0 0.00 0.57 0.00 60 1016.4
20180521234530 75 265 4.0 6.0 0.00 0.57 0.00 61 1016.4
20180521233527 75 302 3.0 4.0 0.00 0.57 0.00 61 1016.3
20180521232532 75 259 3.0 5.0 0.00 0.57 0.00 61 1016.3
20180521231519 76 268 4.0 7.0 0.00 0.57 0.00 60 1016.4
20180521230529 76 266 4.0 5.0 0.00 0.57 0.00 60 1016.5
20180521225519 76 284 2.0 5.0 0.00 0.57 0.00 61 1016.5
20180521224526 75 273 3.0 5.0 0.00 0.57 0.00 61 1016.6
20180521223518 75 270 3.0 5.0 0.00 0.57 0.00 61 1016.7
20180521222517 75 266 4.0 6.0 0.00 0.57 0.00 62 1016.7
20180521221533 75 274 4.0 6.0 0.00 0.57 0.00 62 1016.7
20180521220529 75 256 3.0 4.0 0.00 0.57 0.00 63 1016.9
20180521215532 75 258 3.0 6.0 0.00 0.57 0.00 62 1016.9
20180521214521 76 243 3.0 5.0 0.00 0.57 0.00 62 1016.8
20180521213531 75 270 5.0 7.0 0.00 0.57 0.00 62 1016.8